TimeCDT,TemperatureF,Dew PointF,Humidity,Sea Level PressureIn,VisibilityMPH,Wind Direction,Wind SpeedMPH,Gust SpeedMPH,PrecipitationIn,Events,Conditions,WindDirDegrees,DateUTC
12:53 AM,64.0,57.9,80,29.65,10.0,ESE,8.1,-,N/A,,Overcast,120,2013-04-09 05:53:00
1:53 AM,64.0,57.9,80,29.62,10.0,SSE,12.7,-,N/A,,Overcast,150,2013-04-09 06:53:00
2:53 AM,64.0,57.9,80,29.60,10.0,SE,12.7,-,N/A,,Overcast,140,2013-04-09 07:53:00
3:53 AM,64.0,57.9,80,29.59,10.0,SE,10.4,-,N/A,,Overcast,140,2013-04-09 08:53:00
4:53 AM,64.0,57.9,80,29.59,10.0,SE,11.5,-,N/A,,Overcast,140,2013-04-09 09:53:00
5:53 AM,64.0,57.9,80,29.60,10.0,SSE,12.7,-,N/A,,Overcast,150,2013-04-09 10:53:00
6:53 AM,64.0,57.9,80,29.60,10.0,SSE,13.8,-,N/A,,Overcast,150,2013-04-09 11:53:00
7:53 AM,64.0,57.9,80,29.67,6.0,South,6.9,-,0.01,Rain,Light Rain,170,2013-04-09 12:53:00
8:53 AM,66.0,60.1,81,29.66,10.0,SSE,15.0,-,0.00,,Partly Cloudy,160,2013-04-09 13:53:00
9:53 AM,69.1,60.1,73,29.67,10.0,South,17.3,26.5,N/A,,Clear,170,2013-04-09 14:53:00
10:53 AM,71.1,61.0,70,29.67,10.0,South,18.4,24.2,N/A,,Mostly Cloudy,190,2013-04-09 15:53:00
11:53 AM,73.0,61.0,66,29.68,10.0,South,13.8,25.3,N/A,,Mostly Cloudy,180,2013-04-09 16:53:00
12:53 PM,75.0,61.0,62,29.67,10.0,SSW,12.7,20.7,N/A,,Mostly Cloudy,210,2013-04-09 17:53:00
1:20 PM,59.0,51.8,77,29.70,6.0,NNW,20.7,26.5,N/A,,Haze,330,2013-04-09 18:20:00
1:35 PM,57.2,51.8,82,29.71,4.0,NNW,15.0,21.9,N/A,,Haze,330,2013-04-09 18:35:00
1:53 PM,54.0,48.9,83,29.71,6.0,NW,17.3,21.9,N/A,,Haze,320,2013-04-09 18:53:00
2:40 PM,53.6,48.2,82,29.73,4.0,NNW,16.1,20.7,N/A,,Haze,340,2013-04-09 19:40:00
2:53 PM,52.0,46.9,83,29.73,4.0,NNW,12.7,21.9,N/A,,Haze,340,2013-04-09 19:53:00
3:53 PM,50.0,46.0,86,29.73,10.0,North,10.4,-,N/A,,Overcast,350,2013-04-09 20:53:00
4:53 PM,48.9,45.0,86,29.73,10.0,North,12.7,-,N/A,,Overcast,350,2013-04-09 21:53:00
5:53 PM,48.9,45.0,86,29.73,10.0,North,11.5,-,N/A,,Overcast,360,2013-04-09 22:53:00
6:53 PM,48.0,45.0,89,29.73,10.0,NNE,6.9,-,N/A,,Overcast,30,2013-04-09 23:53:00
7:53 PM,46.0,44.1,93,29.78,10.0,NNW,17.3,23.0,0.04,Rain,Light Rain,340,2013-04-10 00:53:00
8:53 PM,45.0,42.1,90,29.79,9.0,North,13.8,19.6,0.02,Rain,Light Rain,350,2013-04-10 01:53:00
9:53 PM,45.0,43.0,93,29.83,10.0,NNW,15.0,-,0.02,Rain,Light Rain,330,2013-04-10 02:53:00
10:53 PM,43.0,41.0,93,29.83,10.0,North,15.0,27.6,0.00,,Overcast,350,2013-04-10 03:53:00
11:53 PM,39.9,37.9,93,29.95,8.0,West,31.1,38.0,N/A,,Overcast,270,2013-04-10 04:53:00